Wind_Speed
7 7 6 5 4 3 4 4 2 2 2 2 2 2 2 2 2 3 3 3 4 5 6 7 8 9 10 10 11 12 13 14 15 15 15 15 15 16 16 16 16 16 16 16 17 18 18 19 19
7 6 5 4 3 3 4 3 3 3 3 3 3 3 4 4 5 5 5 6 6 7 9 9 10 11 11 12 13 14 15 15 16 16 16 16 16 16 16 16 17 17 17 17 18 18 19 19 20
6 5 4 4 3 4 4 4 4 4 5 5 6 6 7 6 8 8 8 9 9 9 10 11 11 12 13 14 14 15 15 15 15 15 15 15 16 16 16 17 17 17 17 18 18 19 19 20 21
5 4 4 4 4 4 5 6 6 6 7 8 9 9 9 10 10 11 11 11 11 11 12 13 13 13 14 14 15 15 15 15 15 15 15 15 15 15 16 16 16 17 17 18 18 19 19 20 21
5 5 5 5 6 6 7 7 8 9 9 11 12 12 11 14 12 13 13 13 13 13 13 14 13 14 14 15 15 14 14 14 14 14 14 14 15 15 15 15 16 16 17 17 18 19 20 20 21
7 8 8 8 8 8 9 9 10 11 12 13 13 14 12 16 14 14 14 14 14 13 13 14 14 14 14 14 14 13 13 13 13 13 13 14 14 14 15 15 16 17 17 18 19 20 21 22 23
9 10 10 10 10 11 12 11 12 13 14 15 14 15 13 16 15 15 15 14 14 14 14 14 14 14 14 14 13 13 13 13 13 13 13 14 14 15 16 16 17 18 19 20 21 21 22 23 24
10 11 12 12 12 12 13 12 13 14 15 16 16 15 13 16 16 15 15 15 15 15 14 15 15 14 14 14 13 13 13 13 13 13 14 14 15 16 17 18 19 20 20 21 22 23 24 25 26
11 12 13 13 13 13 14 14 14 14 15 15 16 14 14 15 16 16 16 15 15 15 15 14 15 14 14 14 13 13 13 13 13 14 14 15 16 17 18 19 20 21 22 22 23 24 25 26 27
13 13 14 15 14 14 15 15 15 14 16 16 15 14 14 15 16 16 16 16 16 16 16 15 14 15 14 14 14 14 14 14 14 15 15 16 17 18 19 20 21 22 23 24 25 26 27 28 29
14 15 15 16 16 16 15 16 16 16 16 16 14 15 15 16 16 16 16 16 16 16 16 16 15 15 15 15 15 15 16 16 16 17 17 18 19 20 21 22 23 24 25 27 28 29 30 31 31
16 16 16 17 17 17 17 17 17 18 18 16 16 16 15 17 17 17 17 17 17 17 18 17 17 17 17 17 17 18 18 19 19 19 20 21 22 23 24 25 26 27 28 30 31 32 33 34 35
18 18 18 18 18 18 18 19 18 20 20 18 18 18 17 18 18 18 18 19 19 19 19 19 19 19 19 19 20 20 20 21 22 22 23 24 25 26 27 28 30 31 32 33 34 35 36 37 38
20 19 19 20 20 20 19 19 21 21 21 20 20 20 19 19 20 20 21 21 21 21 21 21 22 22 22 22 23 23 23 24 25 26 26 27 29 30 31 32 33 34 35 36 37 38 40 41 42
22 21 21 21 22 21 20 18 23 24 22 21 21 21 21 21 22 22 23 23 23 24 24 24 25 25 25 26 26 26 27 27 28 29 30 31 32 33 34 35 36 37 39 40 41 42 44 45 46
23 22 22 23 21 21 22 19 25 26 24 22 22 23 23 23 24 25 25 26 26 26 26 26 27 27 28 29 29 30 30 30 31 32 34 35 36 37 38 39 40 41 42 44 45 46 47 48 49
23 22 22 24 23 21 21 21 25 27 26 24 24 25 25 24 25 26 27 27 28 28 28 28 29 30 31 32 32 33 33 34 35 36 37 38 40 41 41 42 44 45 46 47 49 50 51 52 52
21 21 21 22 24 23 23 23 24 26 26 26 25 26 25 26 26 27 28 29 29 30 30 31 32 33 34 34 35 35 36 37 38 39 40 41 43 44 45 46 47 49 50 51 52 53 54 55 55
20 20 20 21 22 22 23 25 24 25 25 25 25 25 25 25 27 27 27 29 31 31 32 33 34 35 37 37 37 38 39 40 40 41 42 44 45 47 49 50 51 52 53 54 55 57 57 58 58
19 20 20 20 22 21 21 24 25 25 25 25 25 25 25 25 26 27 28 29 31 32 34 35 36 37 38 39 40 40 41 42 43 44 45 47 49 50 52 53 54 55 56 57 58 59 60 60 61
19 20 20 20 20 21 21 23 25 25 25 25 25 25 26 26 26 27 28 29 31 32 34 35 37 38 39 41 42 42 43 44 45 47 48 50 52 53 54 55 57 58 59 60 60 61 62 63 63
19 20 21 21 21 20 21 21 25 26 25 25 25 25 26 26 27 28 29 30 31 33 34 35 37 39 40 42 43 44 45 46 47 49 51 52 54 55 57 58 59 60 61 62 62 63 64 65 65
20 21 21 22 22 21 21 21 23 26 26 26 26 26 26 27 27 28 29 31 32 33 35 36 38 40 41 43 45 46 47 49 51 52 53 54 56 57 59 60 61 62 63 64 65 65 66 65 65
21 22 23 23 23 22 21 22 22 25 27 29 29 29 28 28 28 29 31 32 33 34 36 38 40 42 44 45 47 48 50 51 53 54 56 57 58 59 60 61 62 63 64 65 66 66 66 65 64
22 24 25 26 25 25 24 24 24 27 29 31 32 32 31 31 31 31 32 33 35 36 38 40 42 44 46 48 49 51 52 54 55 56 58 59 60 61 62 63 63 64 65 66 66 66 66 64 63
24 25 26 28 28 27 25 25 25 28 31 33 35 35 34 33 32 33 34 36 37 39 41 42 44 46 48 49 51 52 54 55 56 58 60 61 63 63 64 64 64 65 65 66 66 66 64 63 63
25 26 27 30 31 32 30 28 26 28 32 36 38 38 36 34 34 35 36 38 40 41 43 44 46 47 49 51 52 54 55 57 58 59 61 61 62 63 64 64 64 64 64 63 63 63 62 62 62
27 28 29 31 33 36 34 32 30 32 34 36 38 39 38 37 37 38 39 40 41 42 43 45 47 48 50 52 53 55 56 58 58 59 60 60 61 62 63 64 63 62 61 60 61 61 61 62 62
27 28 30 32 33 36 37 33 31 33 34 36 38 38 38 37 38 38 39 40 41 42 43 45 46 48 49 51 52 54 55 57 58 58 59 60 60 61 62 62 61 60 59 60 61 61 62 63 63
29 29 30 32 33 35 37 35 32 34 37 38 38 38 37 37 38 38 39 41 42 43 44 45 46 47 49 50 51 53 54 55 56 57 58 58 59 59 59 60 60 60 60 60 61 61 62 63 63
Wind_Direction
71 71 71 72 75 72 56 40 15 354 342 323 296 287 288 291 289 278 271 269 271 273 276 277 278 279 280 281 283 284 285 286 286 287 287 287 287 287 287 287 286 285 284 283 282 280 279 277 276
61 60 58 53 39 30 22 6 347 344 325 304 292 287 287 289 287 284 280 279 278 277 279 279 280 280 281 283 284 285 286 286 287 288 288 289 289 289 289 289 288 287 286 285 283 282 280 279 278
50 46 39 27 10 10 350 338 332 328 307 297 289 287 287 287 286 286 284 282 280 279 279 279 279 280 282 284 285 286 286 287 287 288 290 291 291 291 291 291 291 290 289 288 286 285 283 282 281
30 19 10 353 345 347 327 316 316 306 297 292 288 287 289 287 284 285 285 283 282 280 280 279 279 280 282 284 285 286 286 288 289 290 292 293 294 294 294 294 293 293 292 291 290 288 287 285 284
355 349 339 333 323 321 311 304 300 295 290 288 288 286 286 286 284 284 283 283 283 282 280 280 279 281 283 284 285 286 287 289 290 292 294 296 297 298 298 297 297 297 296 294 293 292 290 289 288
333 331 326 323 316 309 303 302 298 293 290 287 286 286 286 282 283 282 283 282 281 281 280 279 280 281 283 283 285 286 287 289 291 293 295 298 299 300 300 300 300 299 298 297 296 295 294 293 291
323 325 323 321 315 308 303 305 299 295 291 289 286 284 284 282 283 282 282 282 280 279 278 278 279 281 282 282 284 286 288 290 292 295 297 299 301 302 302 302 302 301 300 299 298 297 296 295 293
318 320 319 318 314 307 307 306 299 297 292 290 287 284 282 278 282 281 280 280 279 278 277 278 279 280 281 282 283 286 288 291 293 296 298 300 302 303 304 304 303 303 302 301 300 299 298 296 295
315 317 316 316 315 312 311 307 303 299 296 290 287 285 280 277 279 280 279 278 278 279 279 277 278 280 281 282 284 286 289 292 295 297 300 302 304 305 305 306 306 305 304 304 303 302 301 299 298
310 313 315 316 316 314 312 309 305 300 296 293 291 287 281 277 277 277 276 276 276 277 277 276 276 278 280 282 285 287 290 293 296 298 300 302 304 305 306 307 307 306 306 305 305 304 303 302 301
305 307 311 314 315 314 312 309 305 300 293 295 293 284 280 277 275 274 274 274 275 275 275 275 276 277 279 281 284 287 290 292 295 297 299 300 301 302 304 304 305 305 305 305 305 305 304 303 302
301 303 307 310 312 313 313 308 304 299 296 296 288 282 277 276 275 274 273 273 273 273 274 275 276 276 278 280 282 285 288 290 292 294 295 297 298 299 300 301 302 302 303 303 303 304 304 303 303
298 300 303 305 307 310 311 307 301 296 297 296 289 286 281 275 273 272 271 270 270 271 273 275 275 276 277 278 280 282 284 287 289 290 292 294 295 296 297 297 298 298 299 299 300 300 301 302 301
295 298 299 301 304 307 309 306 298 294 296 294 291 287 284 278 274 272 270 269 270 271 272 274 275 275 277 277 279 280 282 284 286 288 289 291 292 293 294 295 295 296 296 297 297 298 298 299 299
292 295 297 299 301 304 306 306 296 295 296 295 292 288 284 280 276 272 270 270 270 271 272 273 274 275 276 277 279 280 281 283 284 285 287 289 290 291 293 293 294 295 295 296 296 296 296 296 297
290 294 295 295 297 303 304 305 297 297 299 297 292 288 284 282 278 274 272 271 271 271 272 272 273 274 275 276 278 279 280 282 283 284 286 288 289 290 291 292 293 294 295 295 295 295 295 296 296
290 293 296 298 300 302 302 301 298 300 302 300 294 290 288 283 279 276 275 274 273 272 272 272 272 273 274 276 278 279 280 281 282 283 285 286 288 289 290 291 292 293 294 294 294 294 294 295 295
293 297 299 302 305 307 305 302 300 301 301 300 297 294 291 286 282 280 278 276 275 273 272 272 272 273 275 277 278 278 279 280 281 283 284 285 286 288 289 290 291 292 293 293 293 294 294 294 293
295 298 300 302 304 307 306 305 304 303 303 302 300 297 294 291 287 285 282 279 277 276 275 274 274 275 276 278 278 279 280 281 282 283 284 284 285 287 288 290 290 291 292 292 293 293 293 293 293
299 300 303 304 306 307 307 306 305 305 305 304 303 300 298 295 292 289 286 283 281 279 279 278 277 277 278 279 279 280 281 281 282 283 283 284 285 286 288 289 290 291 291 291 292 292 292 293 292
302 303 305 306 308 310 310 309 307 306 307 306 305 302 300 298 295 293 290 287 284 283 282 282 281 280 280 280 281 281 281 282 283 282 282 283 285 286 287 289 289 290 290 291 291 292 292 292 292
303 305 307 308 310 312 313 314 311 311 311 309 306 304 302 300 298 295 293 290 288 286 285 283 283 282 282 282 282 282 283 283 282 282 283 284 285 286 287 288 289 289 290 290 291 291 292 292 293
305 306 308 310 312 313 312 312 312 311 311 309 307 306 304 303 301 298 295 292 290 288 286 285 284 283 283 283 283 283 284 283 283 283 284 284 285 286 287 288 288 289 289 290 291 291 292 293 293
305 307 308 308 308 308 310 314 316 313 311 308 307 307 307 305 302 298 296 293 290 288 287 286 285 285 284 284 284 284 284 284 284 284 284 285 285 286 287 287 288 288 289 290 291 292 292 293 293
305 307 307 309 311 313 316 318 318 312 309 307 307 307 308 306 302 299 296 293 291 289 288 287 286 285 285 285 285 285 285 285 286 286 286 286 286 286 286 287 288 288 289 290 291 292 292 293 293
305 307 308 309 310 310 312 314 315 310 307 305 305 305 307 306 304 301 298 295 292 291 289 288 287 287 286 286 286 286 286 286 286 286 286 286 287 287 287 287 288 289 289 290 291 292 293 294 294
304 305 306 306 306 306 308 310 310 307 306 306 306 308 310 310 308 304 300 298 296 294 292 291 289 288 288 287 287 287 286 286 287 287 287 287 288 288 288 288 289 290 290 291 292 293 293 294 295
301 304 305 305 306 307 309 313 317 314 310 308 308 311 314 313 310 307 304 301 298 296 294 293 291 290 289 289 288 288 288 288 288 288 288 288 288 288 289 289 289 290 291 292 292 293 294 294 294
297 300 302 303 304 305 307 312 318 311 309 307 308 311 312 311 309 307 305 303 301 299 298 296 295 294 292 292 291 290 289 289 289 289 289 289 289 290 290 290 290 291 291 291 292 293 293 294 294
297 300 301 302 303 305 306 313 315 310 307 308 311 313 313 312 311 310 309 307 306 305 303 302 300 299 297 296 295 293 293 292 291 291 290 290 290 291 291 291 291 291 291 292 292 292 292 293 293
Height
5863 5863 5863 5864 5864 5864 5862 5862 5862 5862 5862 5862 5862 5862 5862 5863 5864 5866 5864 5863 5863 5864 5864 5864 5864 5864 5864 5864 5864 5864 5864 5864 5863 5863 5863 5862 5862 5862 5862 5862 5861 5861 5861 5861 5861 5861 5861 5861 5861
5864 5864 5865 5865 5864 5863 5863 5862 5862 5863 5863 5863 5862 5862 5862 5862 5862 5862 5862 5862 5862 5862 5862 5862 5862 5862 5862 5862 5862 5862 5861 5861 5860 5860 5860 5859 5859 5859 5858 5858 5858 5858 5858 5858 5858 5858 5857 5857 5857
5865 5865 5865 5865 5864 5863 5863 5862 5862 5863 5862 5862 5862 5862 5861 5862 5861 5860 5861 5860 5860 5861 5860 5860 5860 5860 5860 5860 5859 5859 5858 5858 5858 5857 5857 5856 5856 5855 5855 5855 5854 5854 5854 5854 5854 5854 5854 5853 5853
5866 5866 5865 5865 5863 5862 5862 5862 5862 5862 5862 5861 5861 5861 5860 5860 5860 5859 5859 5858 5858 5859 5858 5858 5858 5857 5857 5857 5856 5856 5856 5855 5855 5854 5854 5853 5853 5852 5852 5851 5851 5851 5850 5850 5850 5850 5850 5849 5849
5866 5865 5865 5864 5863 5862 5861 5861 5861 5861 5860 5860 5860 5859 5859 5858 5858 5857 5856 5856 5856 5856 5856 5855 5855 5855 5854 5854 5853 5853 5853 5852 5852 5851 5851 5850 5850 5849 5849 5848 5848 5847 5847 5846 5846 5846 5845 5845 5845
5866 5865 5864 5862 5861 5861 5860 5860 5859 5859 5858 5858 5857 5857 5857 5855 5855 5854 5854 5854 5853 5853 5853 5852 5852 5852 5851 5851 5850 5850 5850 5849 5849 5848 5848 5847 5847 5846 5845 5845 5844 5844 5843 5843 5842 5842 5841 5840 5840
5866 5864 5863 5861 5860 5859 5859 5858 5858 5857 5856 5855 5855 5854 5855 5853 5852 5852 5851 5851 5851 5851 5851 5850 5850 5849 5849 5848 5848 5847 5847 5847 5846 5845 5845 5844 5844 5843 5842 5842 5841 5840 5839 5839 5838 5837 5836 5836 5835
5864 5864 5861 5860 5859 5858 5857 5856 5855 5854 5854 5853 5852 5852 5852 5851 5850 5849 5849 5848 5848 5848 5848 5847 5847 5847 5846 5846 5845 5845 5844 5844 5843 5842 5842 5841 5840 5840 5839 5838 5837 5836 5836 5835 5834 5833 5832 5831 5830
5862 5863 5860 5859 5857 5857 5855 5854 5853 5852 5851 5850 5849 5849 5849 5848 5847 5846 5846 5845 5845 5845 5845 5845 5844 5844 5843 5843 5842 5842 5841 5841 5840 5839 5838 5838 5837 5836 5835 5834 5833 5832 5831 5830 5829 5828 5827 5825 5824
5860 5860 5858 5857 5856 5854 5853 5852 5851 5850 5848 5847 5846 5846 5845 5845 5844 5844 5843 5842 5842 5842 5842 5841 5841 5841 5840 5840 5839 5839 5838 5837 5837 5836 5835 5834 5833 5832 5831 5830 5829 5828 5827 5825 5824 5823 5821 5820 5818
5858 5857 5856 5855 5853 5852 5851 5849 5848 5847 5846 5844 5844 5843 5842 5841 5841 5840 5840 5840 5839 5839 5838 5838 5838 5838 5837 5837 5836 5835 5835 5834 5833 5832 5831 5830 5829 5828 5827 5826 5825 5823 5822 5820 5819 5817 5816 5814 5812
5856 5854 5853 5852 5851 5849 5848 5847 5845 5844 5843 5841 5840 5839 5839 5838 5837 5837 5837 5836 5836 5835 5835 5834 5834 5834 5833 5833 5832 5831 5831 5830 5829 5828 5827 5826 5825 5824 5822 5821 5820 5818 5816 5815 5813 5811 5809 5807 5806
5853 5851 5850 5849 5848 5847 5845 5843 5842 5840 5839 5838 5837 5836 5835 5835 5834 5833 5833 5832 5832 5831 5831 5831 5830 5830 5829 5829 5828 5827 5826 5825 5824 5823 5822 5821 5820 5818 5817 5816 5814 5812 5810 5808 5806 5804 5802 5800 5798
5849 5848 5846 5845 5844 5844 5843 5840 5837 5836 5835 5834 5833 5832 5831 5831 5830 5829 5828 5828 5827 5827 5827 5826 5825 5825 5824 5824 5823 5822 5821 5820 5819 5818 5816 5815 5814 5812 5811 5809 5807 5805 5803 5801 5799 5796 5794 5792 5789
5845 5844 5843 5842 5840 5840 5839 5837 5832 5831 5831 5830 5829 5828 5827 5826 5825 5825 5824 5823 5823 5822 5822 5821 5820 5820 5819 5818 5817 5816 5815 5814 5813 5811 5810 5808 5807 5805 5803 5801 5799 5797 5795 5792 5790 5787 5785 5782 5779
5840 5840 5839 5838 5837 5835 5835 5833 5828 5826 5826 5826 5824 5823 5822 5821 5820 5819 5819 5818 5817 5817 5817 5816 5815 5814 5813 5812 5811 5810 5809 5807 5806 5804 5802 5800 5798 5797 5795 5793 5790 5788 5785 5783 5780 5777 5774 5771 5768
5836 5836 5834 5832 5832 5831 5830 5828 5824 5822 5821 5820 5819 5817 5817 5816 5815 5814 5813 5813 5812 5811 5811 5810 5809 5807 5806 5805 5804 5803 5801 5800 5798 5796 5794 5792 5789 5787 5785 5783 5780 5778 5775 5772 5769 5766 5763 5760 5756
5832 5831 5829 5827 5826 5826 5824 5822 5820 5817 5816 5815 5813 5812 5811 5810 5809 5808 5808 5807 5806 5805 5804 5803 5802 5800 5799 5798 5797 5795 5793 5792 5790 5788 5786 5783 5780 5778 5775 5773 5770 5767 5764 5760 5757 5753 5750 5746 5743
5827 5826 5825 5824 5823 5822 5819 5816 5815 5813 5811 5810 5808 5806 5805 5804 5802 5801 5801 5800 5799 5798 5797 5796 5795 5793 5791 5790 5789 5787 5785 5783 5782 5779 5776 5773 5770 5767 5764 5762 5758 5755 5752 5748 5744 5740 5736 5733 5728
5823 5822 5821 5821 5818 5817 5815 5812 5810 5808 5806 5805 5803 5801 5800 5798 5797 5795 5795 5793 5792 5791 5790 5788 5787 5786 5784 5782 5780 5779 5777 5775 5772 5769 5766 5763 5760 5756 5753 5749 5746 5742 5739 5735 5731 5726 5722 5719 5714
5819 5818 5817 5816 5814 5812 5811 5808 5805 5803 5801 5799 5798 5796 5794 5792 5791 5789 5788 5787 5785 5784 5782 5781 5779 5778 5776 5773 5771 5769 5767 5765 5762 5759 5755 5752 5748 5745 5741 5737 5733 5729 5725 5721 5716 5712 5708 5703 5700
5815 5813 5812 5810 5809 5808 5807 5805 5800 5797 5796 5794 5792 5790 5789 5787 5785 5783 5781 5780 5778 5776 5774 5772 5770 5768 5766 5764 5761 5759 5756 5754 5751 5747 5744 5740 5736 5732 5728 5724 5719 5715 5711 5707 5702 5697 5692 5688 5684
5810 5809 5808 5806 5804 5804 5802 5800 5798 5793 5790 5788 5787 5785 5783 5781 5779 5777 5775 5772 5770 5768 5766 5764 5761 5759 5756 5754 5751 5748 5745 5742 5738 5735 5731 5728 5724 5719 5714 5710 5705 5700 5696 5692 5687 5682 5677 5673 5668
5805 5805 5803 5802 5800 5800 5797 5795 5794 5789 5786 5782 5780 5779 5777 5776 5773 5770 5768 5765 5762 5760 5757 5754 5751 5749 5746 5743 5740 5736 5733 5729 5725 5722 5718 5714 5710 5706 5701 5695 5690 5685 5681 5676 5671 5666 5661 5657 5652
5801 5800 5798 5796 5794 5793 5792 5790 5788 5784 5780 5777 5774 5772 5771 5769 5766 5763 5760 5757 5754 5751 5748 5745 5741 5738 5734 5731 5727 5724 5720 5716 5712 5708 5703 5699 5695 5691 5686 5680 5676 5670 5665 5660 5655 5650 5645 5640 5636
5796 5795 5793 5790 5788 5788 5787 5785 5784 5778 5773 5770 5767 5765 5764 5761 5758 5755 5751 5748 5745 5741 5738 5734 5731 5727 5723 5719 5715 5710 5706 5702 5698 5693 5688 5683 5679 5675 5670 5665 5660 5655 5650 5644 5639 5634 5629 5624 5619
5791 5789 5787 5785 5782 5780 5780 5780 5778 5773 5767 5762 5759 5757 5755 5753 5750 5746 5742 5738 5735 5731 5727 5723 5719 5715 5710 5706 5702 5697 5692 5688 5683 5678 5673 5668 5663 5658 5653 5648 5644 5639 5634 5628 5623 5618 5613 5608 5603
5786 5783 5781 5778 5775 5772 5771 5771 5769 5764 5760 5756 5751 5748 5746 5743 5740 5736 5732 5728 5724 5720 5716 5711 5707 5702 5698 5693 5688 5684 5679 5674 5669 5664 5659 5653 5648 5642 5637 5632 5627 5623 5618 5612 5607 5602 5597 5591 5586
5781 5779 5775 5772 5769 5765 5762 5766 5763 5757 5753 5749 5745 5742 5738 5735 5731 5727 5722 5718 5713 5709 5704 5699 5695 5690 5685 5680 5675 5670 5664 5659 5654 5649 5644 5638 5633 5627 5622 5616 5611 5607 5602 5596 5591 5586 5581 5575 5570
5773 5771 5769 5766 5763 5758 5754 5758 5755 5749 5744 5740 5737 5734 5730 5726 5722 5717 5713 5708 5703 5698 5693 5688 5683 5678 5672 5667 5661 5656 5650 5645 5639 5634 5629 5623 5618 5612 5606 5601 5595 5590 5585 5580 5575 5570 5564 5558 5553